TimeCDT,TemperatureF,Dew PointF,Humidity,Sea Level PressureIn,VisibilityMPH,Wind Direction,Wind SpeedMPH,Gust SpeedMPH,PrecipitationIn,Events,Conditions,WindDirDegrees,DateUTC
12:03 AM,55.4,53.6,94,29.85,10.0,North,5.8,-,N/A,,Overcast,360,2013-05-06 05:03:00
12:47 AM,55.4,53.6,94,29.85,10.0,NE,6.9,-,N/A,,Overcast,40,2013-05-06 05:47:00
12:53 AM,55.0,52.0,89,29.85,10.0,NNE,6.9,-,N/A,,Overcast,30,2013-05-06 05:53:00
1:06 AM,55.4,51.8,88,29.85,10.0,NNE,5.8,-,N/A,,Overcast,20,2013-05-06 06:06:00
1:53 AM,55.0,52.0,89,29.82,10.0,North,6.9,-,N/A,,Overcast,360,2013-05-06 06:53:00
2:28 AM,53.6,51.8,94,29.84,10.0,NNE,4.6,-,N/A,,Overcast,20,2013-05-06 07:28:00
2:53 AM,54.0,51.1,90,29.83,10.0,North,5.8,-,N/A,,Overcast,10,2013-05-06 07:53:00
3:29 AM,53.6,51.8,94,29.83,10.0,North,5.8,-,N/A,,Overcast,360,2013-05-06 08:29:00
3:53 AM,54.0,51.1,90,29.84,8.0,NNE,6.9,-,N/A,,Overcast,20,2013-05-06 08:53:00
4:03 AM,53.6,50.0,88,29.84,10.0,NNE,9.2,-,N/A,,Overcast,30,2013-05-06 09:03:00
4:32 AM,53.6,50.0,88,29.84,10.0,North,6.9,-,N/A,,Overcast,360,2013-05-06 09:32:00
4:53 AM,53.1,50.0,89,29.83,10.0,North,6.9,-,N/A,,Overcast,10,2013-05-06 09:53:00
5:53 AM,53.1,50.0,89,29.84,10.0,North,8.1,-,N/A,,Overcast,350,2013-05-06 10:53:00
6:07 AM,53.6,50.0,88,29.85,10.0,North,9.2,-,N/A,,Overcast,10,2013-05-06 11:07:00
6:27 AM,53.6,50.0,88,29.85,10.0,North,5.8,-,N/A,,Overcast,350,2013-05-06 11:27:00
6:53 AM,53.1,51.1,93,29.86,4.0,North,6.9,-,N/A,,Overcast,350,2013-05-06 11:53:00
7:40 AM,53.6,51.8,94,29.86,2.0,North,10.4,-,N/A,,Overcast,350,2013-05-06 12:40:00
7:53 AM,53.1,52.0,96,29.87,1.8,NNW,6.9,-,N/A,,Overcast,340,2013-05-06 12:53:00
8:10 AM,53.6,51.8,94,29.87,2.0,North,9.2,-,N/A,,Overcast,350,2013-05-06 13:10:00
8:27 AM,53.6,51.8,94,29.87,3.0,North,10.4,-,N/A,,Overcast,350,2013-05-06 13:27:00
8:53 AM,54.0,53.1,97,29.87,7.0,NNW,8.1,-,N/A,,Overcast,340,2013-05-06 13:53:00
9:44 AM,55.4,53.6,94,29.87,10.0,North,8.1,-,N/A,,Overcast,350,2013-05-06 14:44:00
9:53 AM,55.9,53.1,90,29.88,10.0,North,9.2,-,N/A,,Overcast,360,2013-05-06 14:53:00
10:53 AM,59.0,54.0,83,29.88,10.0,North,15.0,-,N/A,,Overcast,10,2013-05-06 15:53:00
11:49 AM,60.8,53.6,77,29.88,10.0,North,11.5,-,N/A,,Overcast,360,2013-05-06 16:49:00
11:53 AM,60.1,54.0,80,29.87,10.0,North,11.5,-,N/A,,Overcast,10,2013-05-06 16:53:00
12:53 PM,63.0,55.0,75,29.87,10.0,NE,13.8,23.0,N/A,,Overcast,40,2013-05-06 17:53:00
1:00 PM,62.6,55.4,77,29.88,10.0,NE,17.3,-,N/A,,Overcast,40,2013-05-06 18:00:00
1:53 PM,60.1,55.0,83,29.88,9.0,NNE,11.5,-,0.00,,Overcast,20,2013-05-06 18:53:00
2:23 PM,62.6,55.4,77,29.88,10.0,North,15.0,19.6,N/A,,Overcast,10,2013-05-06 19:23:00
2:53 PM,63.0,54.0,72,29.87,10.0,NNE,10.4,-,N/A,,Overcast,20,2013-05-06 19:53:00
3:26 PM,64.4,55.4,73,29.87,10.0,North,10.4,-,N/A,,Mostly Cloudy,360,2013-05-06 20:26:00
3:35 PM,64.4,55.4,73,29.87,10.0,North,15.0,-,N/A,,Scattered Clouds,350,2013-05-06 20:35:00
3:53 PM,66.9,55.9,68,29.86,10.0,North,9.2,-,N/A,,Scattered Clouds,360,2013-05-06 20:53:00
4:53 PM,64.9,55.0,70,29.86,10.0,North,13.8,-,N/A,,Overcast,350,2013-05-06 21:53:00
5:53 PM,63.0,55.0,75,29.88,10.0,North,12.7,-,N/A,,Overcast,350,2013-05-06 22:53:00
6:15 PM,62.6,55.4,77,29.89,10.0,North,11.5,-,N/A,,Overcast,350,2013-05-06 23:15:00
6:38 PM,60.8,53.6,77,29.90,10.0,North,11.5,-,N/A,,Overcast,10,2013-05-06 23:38:00
6:53 PM,60.1,55.0,83,29.91,10.0,NNW,6.9,-,N/A,,Overcast,340,2013-05-06 23:53:00
7:53 PM,57.9,55.9,93,29.92,9.0,North,9.2,-,0.00,,Overcast,360,2013-05-07 00:53:00
8:53 PM,57.9,55.0,90,29.92,10.0,NNW,6.9,-,N/A,,Overcast,340,2013-05-07 01:53:00
9:53 PM,59.0,55.0,87,29.93,10.0,NNW,5.8,-,N/A,,Overcast,340,2013-05-07 02:53:00
10:53 PM,59.0,55.9,90,29.93,10.0,North,5.8,-,N/A,,Overcast,350,2013-05-07 03:53:00
11:53 PM,57.0,55.0,93,29.93,10.0,Calm,Calm,-,N/A,,Partly Cloudy,0,2013-05-07 04:53:00